DW4393 Weather Reports


Display with metric or nautical units.
time (UTC)temp
F
wind
direction
speed
MPH
gust
MPH
rain 1hr
in
rain 24hr
in
rain mn
in
humidity
%
barometer
mb
20260509191303 68 197 1.0 2.0 0.00 0.00 0.00 79 1011.9
20260509190803 68 210 1.0 2.0 0.00 0.00 0.00 79 1012.0
20260509184803 68 229 0.0 2.0 0.00 0.00 0.00 81 1012.0
20260509184303 67 223 0.0 1.0 0.00 0.00 0.00 82 1012.0
20260509183803 67 240 0.0 1.0 0.00 0.00 0.00 83 1012.1
20260509183303 67 240 0.0 3.0 0.00 0.00 0.00 82 1012.2
20260509181803 67 193 0.0 1.0 0.00 0.00 0.00 84 1012.4
20260509181303 66 192 1.0 2.0 0.00 0.00 0.00 83 1012.3
20260509180803 66 173 2.0 3.0 0.00 0.00 0.00 84 1012.4
20260509180303 66 192 0.0 2.0 0.00 0.00 0.00 84 1012.3
20260509174803 66 209 1.0 2.0 0.00 0.00 0.00 84 1012.2
20260509174304 66 186 1.0 3.0 0.00 0.00 0.00 86 1012.2
20260509173304 65 202 0.0 1.0 0.00 0.00 0.00 87 1012.2
20260509171303 65 226 0.0 2.0 0.00 0.00 0.00 88 1012.2
20260509170803 65 226 1.0 3.0 0.00 0.00 0.00 88 1012.5
20260509170304 65 175 1.0 3.0 0.00 0.00 0.00 89 1012.4
20260509164803 64 185 0.0 2.0 0.00 0.00 0.00 90 1012.5
20260509164304 64 185 1.0 2.0 0.00 0.00 0.00 89 1012.6
20260509163303 64 171 0.0 3.0 0.00 0.00 0.00 90 1012.5
20260509161303 64 215 0.0 1.0 0.00 0.00 0.00 89 1012.7
20260509160803 64 213 0.0 0.0 0.00 0.00 0.00 89 1012.5
20260509160303 64 184 1.0 2.0 0.00 0.00 0.00 89 1012.4
20260509154803 64 155 0.0 1.0 0.00 0.00 0.00 90 1012.4
20260509154303 63 149 0.0 1.0 0.00 0.00 0.00 90 1012.3
20260509153804 63 149 0.0 1.0 0.00 0.00 0.00 90 1012.6
20260509153303 63 242 0.0 1.0 0.00 0.00 0.00 90 1012.6
20260509151803 63 174 0.0 0.0 0.00 0.00 0.00 90 1013.1
20260509151303 63 173 1.0 2.0 0.00 0.00 0.00 90 1013.1
20260509150803 63 217 0.0 1.0 0.00 0.00 0.00 90 1013.2
20260509150303 63 217 1.0 2.0 0.00 0.00 0.00 90 1013.2
20260509144304 63 310 0.0 1.0 0.00 0.00 0.00 90 1013.1
20260509143303 63 248 0.0 3.0 0.00 0.00 0.00 90 1013.1
20260509141804 63 240 1.0 2.0 0.00 0.00 0.00 90 1012.8
20260509141303 63 238 1.0 3.0 0.00 0.00 0.00 90 1012.7
20260509140803 63 200 1.0 3.0 0.00 0.00 0.00 91 1012.7
20260509134803 62 256 1.0 2.0 0.00 0.00 0.00 92 1012.1
20260509134304 62 247 0.0 2.0 0.00 0.00 0.00 92 1011.9
20260509133804 61 247 0.0 1.0 0.00 0.00 0.00 92 1011.9
20260509133303 61 247 0.0 1.0 0.00 0.00 0.00 92 1012.2
20260509131803 60 247 0.0 1.0 0.00 0.00 0.00 93 1012.5
20260509131304 60 247 0.0 1.0 0.00 0.00 0.00 93 1012.6
20260509130803 60 247 1.0 2.0 0.00 0.00 0.00 93 1012.7
20260509130303 60 247 1.0 1.0 0.00 0.00 0.00 93 1012.8
20260509124804 60 247 0.0 1.0 0.00 0.00 0.00 94 1012.5
20260509124303 59 247 1.0 1.0 0.00 0.00 0.00 94 1012.3
20260509123804 59 247 0.0 0.0 0.00 0.00 0.00 94 1012.4
20260509123303 59 247 0.0 0.0 0.00 0.00 0.00 94 1012.3
20260509121303 58 247 0.0 0.0 0.00 0.00 0.00 94 1011.9
20260509120804 58 247 0.0 0.0 0.00 0.00 0.00 94 1012.1
20260509120303 58 247 0.0 0.0 0.00 0.00 0.00 94 1012.1
20260509114804 58 247 0.0 0.0 0.00 0.00 0.00 94 1012.1
20260509114303 58 247 0.0 0.0 0.00 0.00 0.00 94 1012.3
20260509113803 57 247 0.0 0.0 0.00 0.00 0.00 94 1012.2
20260509113304 57 247 0.0 0.0 0.00 0.00 0.00 94 1012.2
20260509111804 57 247 0.0 0.0 0.00 0.00 0.00 94 1011.9
20260509111303 57 247 0.0 0.0 0.00 0.00 0.00 94 1011.9
20260509110303 57 247 0.0 0.0 0.00 0.00 0.00 94 1011.9
20260509104804 57 247 0.0 0.0 0.00 0.00 0.00 94 1011.7
20260509104304 57 247 0.0 0.0 0.00 0.00 0.00 94 1012.0
20260509103307 57 247 0.0 0.0 0.00 0.00 0.00 94 1011.7
20260509101804 57 247 0.0 0.0 0.00 0.00 0.00 94 1012.3
20260509101303 57 247 0.0 0.0 0.00 0.00 0.00 94 1012.5
20260509100804 57 247 0.0 0.0 0.00 0.00 0.00 94 1012.5
20260509100304 57 247 0.0 0.0 0.00 0.00 0.00 94 1012.6
20260509094803 56 247 0.0 0.0 0.00 0.00 0.00 94 1012.6
20260509094303 56 247 0.0 0.0 0.00 0.00 0.00 94 1012.5
20260509093804 56 247 0.0 0.0 0.00 0.00 0.00 94 1012.5
20260509091803 56 247 0.0 0.0 0.00 0.00 0.00 94 1012.2
20260509091304 56 247 0.0 0.0 0.00 0.00 0.00 94 1012.1
20260509090804 56 247 0.0 0.0 0.00 0.00 0.00 94 1012.4
20260509090304 55 247 0.0 0.0 0.00 0.00 0.00 94 1012.3
20260509084804 55 247 0.0 0.0 0.00 0.00 0.00 94 1012.0
20260509084303 55 247 0.0 0.0 0.00 0.00 0.00 94 1011.9
20260509083804 55 247 0.0 0.0 0.00 0.00 0.00 94 1011.7
20260509083304 55 247 0.0 0.0 0.00 0.00 0.00 94 1011.6
20260509081804 56 247 0.0 0.0 0.00 0.00 0.00 94 1011.9
20260509081304 55 247 0.0 0.0 0.00 0.00 0.00 94 1012.0
20260509080804 55 247 0.0 0.0 0.00 0.00 0.00 94 1012.0
20260509080303 55 247 0.0 0.0 0.00 0.00 0.00 94 1011.8
20260509074303 56 247 0.0 0.0 0.00 0.00 0.00 93 1011.5
20260509073804 56 247 0.0 0.0 0.00 0.00 0.00 93 1011.5
20260509071804 56 247 0.0 0.0 0.00 0.00 0.00 93 1011.9
20260509071304 56 247 0.0 0.0 0.00 0.00 0.00 93 1012.0
20260509070804 57 247 0.0 0.0 0.00 0.00 0.00 93 1012.1
20260509070304 57 247 0.0 0.0 0.00 0.00 0.00 93 1012.1
20260509064803 57 247 0.0 0.0 0.00 0.00 0.00 93 1012.0
20260509064305 57 247 0.0 0.0 0.00 0.00 0.00 93 1012.3
20260509063804 57 247 0.0 0.0 0.00 0.00 0.00 93 1012.3
20260509063304 57 247 0.0 0.0 0.00 0.00 0.00 93 1012.5
20260509061803 58 247 0.0 0.0 0.00 0.00 0.00 93 1012.9
20260509061303 58 247 0.0 0.0 0.00 0.00 0.00 93 1013.0
20260509060802 58 247 0.0 0.0 0.00 0.00 0.00 93 1013.0
20260509060303 58 247 0.0 0.0 0.00 0.00 0.00 93 1013.0
20260509054803 58 247 0.0 0.0 0.00 0.00 0.00 93 1013.3
20260509054302 58 247 0.0 0.0 0.00 0.00 0.00 93 1013.3
20260509053802 58 247 0.0 0.0 0.00 0.00 0.00 93 1013.1
20260509053303 58 247 0.0 0.0 0.00 0.00 0.00 93 1013.0
20260509051803 58 247 0.0 0.0 0.00 0.00 0.00 93 1013.4
20260509050803 58 247 0.0 0.0 0.00 0.00 0.00 93 1013.5
20260509050302 57 247 0.0 0.0 0.00 0.00 0.00 93 1013.5
20260509044803 57 247 0.0 0.0 0.00 0.00 0.00 93 1013.5
20260509044303 57 247 0.0 0.0 0.00 0.00 0.00 93 1013.6
20260509043802 57 247 0.0 0.0 0.00 0.00 0.00 93 1013.5
20260509043303 58 247 0.0 0.0 0.00 0.00 0.00 92 1013.4
20260509041803 58 247 0.0 0.0 0.00 0.00 0.00 92 1013.6
20260509040823 58 247 0.0 0.0 0.00 0.00 0.00 92 1013.8
20260509040303 58 247 0.0 0.0 0.00 0.00 0.00 92 1013.8
20260509034803 58 247 0.0 0.0 0.00 0.00 0.00 92 1014.0
20260509034303 58 247 0.0 0.0 0.00 0.00 0.00 92 1014.0
20260509033803 59 247 0.0 0.0 0.00 0.00 0.00 92 1013.9
20260509033304 59 247 0.0 0.0 0.00 0.00 0.00 91 1014.0
20260509031803 59 247 0.0 0.0 0.00 0.00 0.00 91 1014.1
20260509031302 59 247 0.0 0.0 0.00 0.00 0.00 91 1014.3
20260509030803 59 247 0.0 0.0 0.00 0.00 0.00 91 1014.3
20260509024802 60 247 0.0 0.0 0.00 0.00 0.00 90 1014.6
20260509024303 60 247 0.0 0.0 0.00 0.00 0.00 90 1014.5
20260509023802 60 247 0.0 0.0 0.00 0.00 0.00 90 1014.5
20260509021803 60 247 0.0 0.0 0.00 0.00 0.00 89 1014.6
20260509021302 60 247 0.0 0.0 0.00 0.00 0.00 89 1014.5
20260509020803 60 247 0.0 0.0 0.00 0.00 0.00 89 1014.5
20260509020303 60 247 0.0 0.0 0.00 0.00 0.00 89 1014.5
20260509014804 61 247 0.0 0.0 0.00 0.00 0.00 89 1014.4
20260509013303 61 247 0.0 0.0 0.00 0.00 0.00 89 1014.1
20260509011803 61 247 0.0 0.0 0.00 0.00 0.00 88 1014.1
20260509011303 61 247 0.0 0.0 0.00 0.00 0.00 88 1014.3
20260509010803 61 247 0.0 0.0 0.00 0.00 0.00 88 1014.4
20260509004802 62 247 0.0 0.0 0.00 0.00 0.00 87 1014.3
20260509004303 62 247 0.0 0.0 0.00 0.00 0.00 87 1014.3
20260509003803 62 247 0.0 0.0 0.00 0.00 0.00 86 1014.1
20260509003302 62 247 0.0 0.0 0.00 0.00 0.00 86 1014.0
20260509001803 63 247 0.0 0.0 0.00 0.00 0.00 86 1014.2
20260509001303 63 247 0.0 0.0 0.00 0.00 0.00 85 1014.2
20260509000803 63 247 0.0 0.0 0.00 0.00 0.00 84 1014.1
20260509000303 63 247 0.0 0.0 0.00 0.00 0.00 83 1014.2
20260508234803 64 247 0.0 0.0 0.00 0.00 0.00 83 1013.9
20260508234303 64 247 0.0 0.0 0.00 0.00 0.00 83 1013.9
20260508233803 64 247 0.0 0.0 0.00 0.00 0.00 82 1014.0
20260508233303 64 247 0.0 0.0 0.00 0.00 0.00 81 1014.1
20260508231803 65 247 0.0 0.0 0.00 0.00 0.00 82 1013.8
20260508231303 65 247 0.0 0.0 0.00 0.00 0.00 81 1013.8
20260508230803 66 247 0.0 0.0 0.00 0.00 0.00 79 1013.8
20260508230304 66 247 0.0 0.0 0.00 0.00 0.00 76 1013.7
20260508224802 66 247 0.0 0.0 0.00 0.00 0.00 79 1013.6
20260508224304 66 247 0.0 1.0 0.00 0.00 0.00 74 1013.7
20260508223803 67 247 0.0 0.0 0.00 0.00 0.00 74 1014.0
20260508221803 67 247 0.0 0.0 0.00 0.00 0.00 76 1013.8
20260508221303 67 247 0.0 1.0 0.00 0.00 0.00 74 1013.7
20260508220803 68 247 0.0 1.0 0.00 0.00 0.00 72 1013.8
20260508220303 68 247 0.0 2.0 0.00 0.00 0.00 71 1013.9
20260508214803 67 247 0.0 0.0 0.00 0.00 0.00 79 1014.0
20260508214303 67 247 0.0 0.0 0.00 0.00 0.00 78 1013.8
20260508213803 67 247 0.0 0.0 0.00 0.00 0.00 77 1013.8
20260508211803 67 247 0.0 0.0 0.00 0.00 0.00 77 1013.9
20260508211303 67 247 0.0 0.0 0.00 0.00 0.00 75 1013.9
20260508210804 67 247 0.0 0.0 0.00 0.00 0.00 79 1013.8
20260508210303 67 247 0.0 2.0 0.00 0.00 0.00 74 1013.8
20260508204303 68 247 0.0 0.0 0.00 0.00 0.00 74 1013.9
20260508203803 68 247 0.0 0.0 0.00 0.00 0.00 72 1014.1
20260508203303 68 247 0.0 1.0 0.00 0.00 0.00 71 1014.0
20260508201303 69 247 0.0 0.0 0.00 0.00 0.00 70 1013.6
20260508200803 69 247 0.0 0.0 0.00 0.00 0.00 67 1013.8
20260508200303 69 247 0.0 2.0 0.00 0.00 0.00 67 1013.9
20260508194804 70 244 2.0 3.0 0.00 0.00 0.00 64 1014.2
20260508194303 70 182 1.0 2.0 0.00 0.00 0.00 63 1014.2
20260508193803 70 236 1.0 3.0 0.00 0.00 0.00 63 1014.2